| time (UTC) | temp F | wind direction | speed MPH | gust MPH | rain 1hr in | rain 24hr in | rain mn in | humidity % | barometer mb |
| 20260508080004 | 43 | 300 | 0.0 | 0.0 | 0.00 | 0.00 | 0.00 | 50 | 1009.5 |
| 20260508074605 | 44 | 300 | 0.0 | 0.0 | 0.00 | 0.00 | 0.00 | 48 | 1009.6 |
| 20260508073058 | 44 | 300 | 0.0 | 0.0 | 0.00 | 0.00 | 0.00 | 48 | 1009.7 |
| 20260508071557 | 44 | 300 | 0.0 | 0.0 | 0.00 | 0.00 | 0.00 | 47 | 1009.8 |
| 20260508070056 | 45 | 300 | 0.0 | 0.0 | 0.00 | 0.00 | 0.00 | 47 | 1009.8 |
| 20260508064555 | 45 | 300 | 0.0 | 0.0 | 0.00 | 0.00 | 0.00 | 48 | 1009.9 |
| 20260508063059 | 45 | 300 | 0.0 | 0.0 | 0.00 | 0.00 | 0.00 | 49 | 1009.9 |
| 20260508061556 | 44 | 300 | 0.0 | 0.0 | 0.00 | 0.00 | 0.00 | 50 | 1010.0 |
| 20260508060051 | 44 | 300 | 0.0 | 0.0 | 0.00 | 0.00 | 0.00 | 51 | 1010.1 |
| 20260508054549 | 44 | 300 | 0.0 | 0.0 | 0.00 | 0.00 | 0.00 | 56 | 1010.1 |
| 20260508053056 | 44 | 300 | 0.0 | 0.0 | 0.00 | 0.00 | 0.00 | 55 | 1010.0 |
| 20260508051548 | 45 | 300 | 0.0 | 0.0 | 0.00 | 0.00 | 0.00 | 51 | 1010.0 |
| 20260508050042 | 46 | 300 | 0.0 | 0.0 | 0.00 | 0.00 | 0.00 | 52 | 1010.0 |
| 20260508044542 | 48 | 300 | 0.0 | 0.0 | 0.00 | 0.00 | 0.00 | 47 | 1009.9 |
| 20260508043049 | 47 | 300 | 0.0 | 0.0 | 0.00 | 0.00 | 0.00 | 44 | 1010.0 |
| 20260508041542 | 48 | 300 | 0.0 | 0.0 | 0.00 | 0.00 | 0.00 | 46 | 1010.0 |
| 20260508040040 | 48 | 300 | 0.0 | 0.0 | 0.00 | 0.00 | 0.00 | 48 | 1010.0 |
| 20260508034547 | 48 | 300 | 0.0 | 0.0 | 0.00 | 0.00 | 0.00 | 49 | 1010.1 |
| 20260508033039 | 49 | 300 | 0.0 | 0.0 | 0.00 | 0.00 | 0.00 | 49 | 1010.0 |
| 20260508031539 | 49 | 300 | 0.0 | 0.0 | 0.00 | 0.00 | 0.00 | 49 | 1010.0 |
| 20260508030039 | 50 | 300 | 0.0 | 0.0 | 0.00 | 0.00 | 0.00 | 52 | 1010.1 |
| 20260508024538 | 51 | 300 | 0.0 | 0.0 | 0.00 | 0.00 | 0.00 | 44 | 1010.0 |
| 20260508023037 | 51 | 300 | 0.0 | 0.0 | 0.00 | 0.00 | 0.00 | 49 | 1009.8 |
| 20260508021538 | 52 | 300 | 0.0 | 0.0 | 0.00 | 0.00 | 0.00 | 54 | 1009.7 |
| 20260508020039 | 53 | 300 | 0.0 | 0.0 | 0.00 | 0.00 | 0.00 | 49 | 1009.6 |
| 20260508014536 | 56 | 300 | 0.0 | 0.0 | 0.00 | 0.00 | 0.00 | 47 | 1009.4 |
| 20260508013037 | 57 | 300 | 0.0 | 3.0 | 0.00 | 0.00 | 0.00 | 45 | 1009.4 |
| 20260508011535 | 58 | 300 | 2.0 | 4.0 | 0.00 | 0.00 | 0.00 | 40 | 1009.2 |
| 20260508010034 | 59 | 301 | 2.0 | 6.0 | 0.00 | 0.00 | 0.00 | 41 | 1009.0 |
| 20260508004533 | 59 | 304 | 0.0 | 7.0 | 0.00 | 0.00 | 0.00 | 36 | 1008.9 |
| 20260508003033 | 60 | 285 | 4.0 | 7.0 | 0.00 | 0.00 | 0.00 | 38 | 1008.8 |
| 20260508001533 | 61 | 281 | 4.0 | 11.0 | 0.00 | 0.00 | 0.00 | 37 | 1008.8 |
| 20260508000031 | 62 | 263 | 6.0 | 11.0 | 0.00 | 0.00 | 0.00 | 35 | 1008.9 |
| 20260507234539 | 62 | 269 | 7.0 | 11.0 | 0.00 | 0.00 | 0.00 | 35 | 1009.0 |
| 20260507233030 | 62 | 303 | 5.0 | 12.0 | 0.00 | 0.00 | 0.00 | 31 | 1009.0 |
| 20260507231527 | 62 | 230 | 6.0 | 16.0 | 0.00 | 0.00 | 0.00 | 30 | 1009.1 |
| 20260507230026 | 62 | 246 | 6.0 | 17.0 | 0.00 | 0.00 | 0.00 | 34 | 1009.1 |
| 20260507224527 | 62 | 287 | 4.0 | 13.0 | 0.00 | 0.00 | 0.00 | 33 | 1009.2 |
| 20260507223024 | 63 | 241 | 9.0 | 14.0 | 0.00 | 0.00 | 0.00 | 34 | 1009.3 |
| 20260507221523 | 63 | 252 | 9.0 | 18.0 | 0.00 | 0.00 | 0.00 | 34 | 1009.2 |
| 20260507220021 | 62 | 257 | 4.0 | 10.0 | 0.00 | 0.00 | 0.00 | 35 | 1009.4 |
| 20260507214524 | 62 | 238 | 5.0 | 16.0 | 0.00 | 0.00 | 0.00 | 28 | 1009.5 |
| 20260507213020 | 62 | 225 | 2.0 | 9.0 | 0.00 | 0.00 | 0.00 | 28 | 1009.6 |
| 20260507211517 | 62 | 244 | 4.0 | 15.0 | 0.00 | 0.00 | 0.00 | 29 | 1009.5 |
| 20260507210016 | 62 | 265 | 7.0 | 16.0 | 0.00 | 0.00 | 0.00 | 31 | 1009.6 |
| 20260507204514 | 62 | 244 | 10.0 | 17.0 | 0.00 | 0.00 | 0.00 | 30 | 1009.7 |
| 20260507203014 | 61 | 229 | 5.0 | 17.0 | 0.00 | 0.00 | 0.00 | 33 | 1009.9 |
| 20260507201511 | 61 | 233 | 4.0 | 13.0 | 0.00 | 0.00 | 0.00 | 29 | 1010.0 |
| 20260507200011 | 61 | 262 | 8.0 | 23.0 | 0.00 | 0.00 | 0.00 | 33 | 1010.3 |
| 20260507194508 | 61 | 270 | 10.0 | 18.0 | 0.00 | 0.00 | 0.00 | 35 | 1010.4 |
| 20260507193005 | 61 | 246 | 9.0 | 19.0 | 0.00 | 0.00 | 0.00 | 30 | 1010.4 |
| 20260507191506 | 61 | 250 | 3.0 | 10.0 | 0.00 | 0.00 | 0.00 | 31 | 1010.5 |
| 20260507190005 | 61 | 249 | 5.0 | 17.0 | 0.00 | 0.00 | 0.00 | 31 | 1010.7 |
| 20260507184604 | 61 | 346 | 0.0 | 8.0 | 0.00 | 0.00 | 0.00 | 33 | 1010.6 |
| 20260507183100 | 60 | 309 | 5.0 | 8.0 | 0.00 | 0.00 | 0.00 | 38 | 1010.7 |
| 20260507181558 | 61 | 251 | 6.0 | 10.0 | 0.00 | 0.00 | 0.00 | 34 | 1010.8 |
| 20260507180054 | 60 | 318 | 1.0 | 7.0 | 0.00 | 0.00 | 0.00 | 36 | 1010.9 |
| 20260507174601 | 59 | 273 | 0.0 | 9.0 | 0.00 | 0.00 | 0.00 | 34 | 1011.1 |
| 20260507173051 | 60 | 290 | 0.0 | 4.0 | 0.00 | 0.00 | 0.00 | 33 | 1011.3 |
| 20260507171600 | 59 | 280 | 0.0 | 5.0 | 0.00 | 0.00 | 0.00 | 37 | 1011.5 |
| 20260507170050 | 59 | 345 | 0.0 | 0.0 | 0.00 | 0.00 | 0.00 | 35 | 1011.6 |
| 20260507164544 | 58 | 325 | 0.0 | 5.0 | 0.00 | 0.00 | 0.00 | 40 | 1011.7 |
| 20260507163040 | 56 | 325 | 0.0 | 7.0 | 0.00 | 0.00 | 0.00 | 42 | 1011.8 |
| 20260507161538 | 54 | 338 | 1.0 | 9.0 | 0.00 | 0.00 | 0.00 | 45 | 1011.7 |
| 20260507160033 | 53 | 355 | 5.0 | 10.0 | 0.00 | 0.00 | 0.00 | 43 | 1011.8 |
| 20260507154533 | 52 | 13 | 5.0 | 11.0 | 0.00 | 0.00 | 0.00 | 48 | 1011.9 |
| 20260507153027 | 51 | 5 | 6.0 | 12.0 | 0.00 | 0.00 | 0.00 | 47 | 1011.9 |
| 20260507151522 | 50 | 20 | 8.0 | 14.0 | 0.00 | 0.00 | 0.00 | 50 | 1011.8 |
| 20260507150020 | 49 | 10 | 5.0 | 10.0 | 0.00 | 0.00 | 0.00 | 51 | 1011.9 |
| 20260507144517 | 48 | 360 | 6.0 | 10.0 | 0.00 | 0.00 | 0.00 | 54 | 1011.9 |
| 20260507143011 | 47 | 360 | 5.0 | 8.0 | 0.00 | 0.00 | 0.00 | 55 | 1012.0 |
| 20260507141508 | 46 | 348 | 4.0 | 7.0 | 0.00 | 0.00 | 0.00 | 56 | 1012.1 |
| 20260507140006 | 44 | 348 | 0.0 | 0.0 | 0.00 | 0.00 | 0.00 | 59 | 1012.1 |
| 20260507134601 | 43 | 348 | 0.0 | 7.0 | 0.00 | 0.00 | 0.00 | 61 | 1012.1 |
| 20260507133058 | 42 | 351 | 4.0 | 0.0 | 0.00 | 0.00 | 0.00 | 63 | 1012.4 |
| 20260507131558 | 42 | 355 | 4.0 | 7.0 | 0.00 | 0.00 | 0.00 | 65 | 1012.4 |
| 20260507130109 | 41 | 331 | 4.0 | 10.0 | 0.00 | 0.00 | 0.00 | 67 | 1012.4 |
| 20260507124603 | 42 | 300 | 6.0 | 12.0 | 0.00 | 0.00 | 0.00 | 67 | 1012.7 |
| 20260507123053 | 42 | 17 | 0.0 | 1.0 | 0.00 | 0.00 | 0.00 | 65 | 1012.1 |
| 20260507121550 | 40 | 20 | 0.0 | 0.0 | 0.00 | 0.00 | 0.00 | 66 | 1011.5 |
| 20260507120049 | 38 | 20 | 0.0 | 0.0 | 0.00 | 0.00 | 0.00 | 69 | 1011.4 |
| 20260507114555 | 37 | 20 | 0.0 | 0.0 | 0.00 | 0.00 | 0.00 | 68 | 1011.4 |
| 20260507113047 | 37 | 20 | 0.0 | 0.0 | 0.00 | 0.00 | 0.00 | 68 | 1011.5 |
| 20260507111550 | 37 | 20 | 0.0 | 0.0 | 0.00 | 0.00 | 0.00 | 67 | 1011.5 |
| 20260507110044 | 38 | 20 | 0.0 | 0.0 | 0.00 | 0.00 | 0.00 | 66 | 1011.9 |
| 20260507104542 | 39 | 20 | 0.0 | 1.0 | 0.00 | 0.00 | 0.00 | 66 | 1012.1 |
| 20260507103043 | 39 | 20 | 0.0 | 0.0 | 0.00 | 0.00 | 0.00 | 65 | 1012.4 |
| 20260507101547 | 39 | 20 | 0.0 | 0.0 | 0.00 | 0.00 | 0.00 | 66 | 1012.1 |
| 20260507100043 | 38 | 20 | 0.0 | 0.0 | 0.00 | 0.00 | 0.00 | 67 | 1012.4 |
| 20260507094545 | 38 | 20 | 0.0 | 0.0 | 0.00 | 0.00 | 0.00 | 69 | 1012.3 |
| 20260507093042 | 38 | 20 | 0.0 | 0.0 | 0.00 | 0.00 | 0.00 | 66 | 1012.6 |
| 20260507091539 | 39 | 20 | 0.0 | 0.0 | 0.00 | 0.00 | 0.00 | 64 | 1012.6 |
| 20260507090036 | 40 | 20 | 0.0 | 0.0 | 0.00 | 0.00 | 0.00 | 64 | 1012.9 |
| 20260507084535 | 40 | 20 | 0.0 | 0.0 | 0.00 | 0.00 | 0.00 | 66 | 1013.3 |
| 20260507083028 | 40 | 20 | 0.0 | 0.0 | 0.00 | 0.00 | 0.00 | 66 | 1013.5 |
| 20260507081527 | 40 | 24 | 1.0 | 6.0 | 0.00 | 0.00 | 0.00 | 65 | 1013.8 |